Weather History for KSIF - August, 2014

Change the Weather History Date:

Saturday, August 9, 2014

  Actual Average (KGSO) Record (KGSO)
Temperature  
Mean Temperature 64 °F 78 °F  
Max Temperature 67 °F 87 °F 101 °F (2007)
Min Temperature 62 °F 69 °F 55 °F (1989)
Degree Days  
Heating Degree Days 0 0  
Month to date heating degree days 0  
Since 1 June heating degree days 6  
Since 1 July heating degree days 0  
Cooling Degree Days 0 13  
Month to date cooling degree days 117  
Year to date cooling degree days 1002  
Since 1 June cooling degree days 843  
Growing Degree Days 14 (Base 50)    
Moisture  
Dew Point 65 °F    
Average Humidity 100    
Maximum Humidity 100    
Minimum Humidity 98    
Precipitation  
Precipitation 0.67 in 0.12 in 2.30 in (1970)
Month to date precipitation 1.19  
Year to date precipitation 26.10  
Sea Level Pressure  
Sea Level Pressure 30.12 in    
Wind  
Wind Speed 1 mph (NE)    
Max Wind Speed 5 mph    
Max Gust Speed -    
Visibility 3 miles    
Events Rain    
T = Trace of Precipitation, MM = Missing Value Source: NWS Daily Summary

Daily Weather History Graph

Daily Weather History Graph

Search for Another Location

Airport or City:

Trip Planner

Search our weather history database for the weather conditions in past years. The results will help you decide how hot, cold, wet, or windy it might be!

Date:

Astronomy

Aug. 09, 2014 Rise Set
Actual Time 6:32 AM EDT 8:16 PM EDT
Civil Twilight 6:04 AM EDT 8:44 PM EDT
Nautical Twilight 5:30 AM EDT 9:18 PM EDT
Astronomical Twilight 4:55 AM EDT 9:53 PM EDT
Moon 7:17 PM EDT (8/9) 5:11 AM EDT (8/9)
Length of Visible Light 14h 40m
Length of Day
13h 44m
Waxing Gibbous, 98% of the Moon is Illuminated
Aug 9
Waxing Gibbous
Aug 10
Full
Aug 17
Last Quarter
Aug 25
New
Sep 2
First Quarter

Hourly Weather History & Observations

Time (EDT) Temp. Dew Point Humidity Pressure Visibility Wind Dir Wind Speed Gust Speed Precip Events Conditions
12:15 AM 67.5 °F 67.1 °F 99% 30.12 in 4.0 mi Calm Calm - N/A Rain Light Rain
12:35 AM 67.1 °F 66.7 °F 99% 30.12 in 3.0 mi Calm Calm - N/A   Light Drizzle
12:55 AM 67.1 °F 67.1 °F 100% 30.12 in 2.5 mi Calm Calm - N/A Rain Light Rain
1:35 AM 67.5 °F 67.3 °F 99% 30.11 in 3.0 mi Calm Calm - N/A   Overcast
1:55 AM 67.5 °F 67.5 °F 100% 30.11 in 2.5 mi Calm Calm - N/A   Drizzle
2:15 AM 67.6 °F 67.6 °F 100% 30.10 in 2.5 mi Calm Calm - 0.01 in   Light Drizzle
2:35 AM 67.6 °F 67.6 °F 100% 30.09 in 3.0 mi Calm Calm - 0.01 in Rain Light Rain
2:55 AM 67.5 °F 67.5 °F 100% 30.08 in 4.0 mi ENE 3.5 mph - 0.01 in Rain Rain
3:15 AM 67.1 °F 67.1 °F 100% 30.08 in 5.0 mi Calm Calm - N/A Rain Light Rain
3:35 AM 67.1 °F 66.9 °F 99% 30.08 in 4.0 mi NNE 3.5 mph - N/A   Overcast
3:55 AM 66.7 °F 66.6 °F 99% 30.08 in 4.0 mi NE 4.6 mph - N/A Rain Light Rain
4:15 AM 66.2 °F 66.2 °F 100% 30.08 in 4.0 mi Calm Calm - N/A   Overcast
4:35 AM 66.2 °F 66.0 °F 99% 30.08 in 4.0 mi NNE 3.5 mph - N/A Rain Light Rain
4:55 AM 66.2 °F 65.8 °F 99% 30.08 in 5.0 mi Calm Calm - 0.01 in Rain Light Rain
5:15 AM 66.0 °F 65.7 °F 99% 30.08 in 5.0 mi Calm Calm - N/A   Overcast
5:35 AM 65.8 °F 65.7 °F 99% 30.08 in 5.0 mi Calm Calm - N/A Rain Light Rain
5:55 AM 65.7 °F 65.5 °F 99% 30.08 in 5.0 mi Calm Calm - N/A Rain Rain
6:15 AM 65.7 °F 65.7 °F 100% 30.09 in 4.0 mi Calm Calm - N/A   Light Drizzle
6:35 AM 65.7 °F 65.7 °F 100% 30.09 in 3.0 mi Calm Calm - N/A   Light Drizzle
6:55 AM 65.5 °F 65.5 °F 100% 30.09 in 2.0 mi NE 4.6 mph - 0.02 in Rain Rain
7:15 AM 65.5 °F 65.5 °F 100% 30.10 in 3.0 mi NE 3.5 mph - 0.03 in Rain Rain
7:35 AM 65.3 °F 65.3 °F 100% 30.10 in 5.0 mi NNE 4.6 mph - 0.04 in   Overcast
7:55 AM 65.5 °F 65.5 °F 100% 30.11 in 4.0 mi Calm Calm - 0.04 in Rain Heavy Rain
8:15 AM 65.7 °F 65.7 °F 100% 30.11 in 2.5 mi Calm Calm - 0.01 in   Heavy Drizzle
8:35 AM 65.8 °F 65.8 °F 100% 30.11 in 2.5 mi Calm Calm - 0.02 in Rain Heavy Rain
8:55 AM 65.8 °F 65.8 °F 100% 30.11 in 1.5 mi Calm Calm - 0.07 in Rain Rain
9:15 AM 65.7 °F 65.7 °F 100% 30.12 in 1.8 mi Calm Calm - 0.02 in Rain Rain
9:35 AM 65.5 °F 65.5 °F 100% 30.12 in 1.8 mi Calm Calm - 0.04 in   Heavy Drizzle
9:55 AM 65.7 °F 65.7 °F 100% 30.12 in 2.0 mi Calm Calm - 0.05 in Rain Light Rain
10:15 AM 65.3 °F 65.3 °F 100% 30.12 in 1.5 mi Calm Calm - 0.01 in   Heavy Drizzle
10:35 AM 65.1 °F 65.1 °F 100% 30.13 in 2.0 mi Calm Calm - 0.03 in   Drizzle
10:55 AM 64.8 °F 64.8 °F 100% 30.14 in 2.0 mi Calm Calm - 0.03 in   Drizzle
11:15 AM 64.6 °F 64.6 °F 100% 30.14 in 2.0 mi ENE 3.5 mph - N/A   Drizzle
11:35 AM 64.4 °F 64.4 °F 100% 30.15 in 1.5 mi ENE 3.5 mph - 0.01 in Rain Light Rain
11:55 AM 64.4 °F 64.4 °F 100% 30.15 in 1.8 mi Calm Calm - 0.01 in   Overcast
12:15 PM 63.1 °F 63.1 °F 100% 30.15 in 1.8 mi ENE 3.5 mph - N/A   Overcast
12:35 PM 62.8 °F 62.8 °F 100% 30.16 in 3.0 mi NNE 4.6 mph - N/A   Overcast
12:55 PM 63.0 °F 63.0 °F 100% 30.15 in 2.5 mi NE 3.5 mph - 0.02 in Rain Heavy Rain
1:15 PM 63.0 °F 63.0 °F 100% 30.15 in 2.5 mi East 3.5 mph - 0.01 in Rain Rain
1:35 PM 62.8 °F 62.8 °F 100% 30.14 in 2.5 mi Calm Calm - 0.02 in Rain Rain
1:55 PM 62.6 °F 62.6 °F 100% 30.14 in 2.5 mi ENE 4.6 mph - 0.03 in Rain Rain
2:15 PM 63.0 °F 63.0 °F 100% 30.14 in 2.0 mi Calm Calm - 0.01 in Rain Rain
2:35 PM 63.0 °F 63.0 °F 100% 30.14 in 1.0 mi Calm Calm - 0.17 in Rain Heavy Rain
2:55 PM 63.5 °F 63.5 °F 100% 30.13 in 2.0 mi Calm Calm - 0.26 in Rain Rain
3:15 PM 63.5 °F 63.5 °F 100% 30.13 in 1.8 mi NE 3.5 mph - 0.06 in Rain Light Rain
3:35 PM 63.5 °F 63.5 °F 100% 30.12 in 4.0 mi Calm Calm - 0.07 in Rain Light Rain
3:55 PM 63.5 °F 63.5 °F 100% 30.13 in 4.0 mi NNE 3.5 mph - 0.08 in Rain Light Rain
4:15 PM 63.7 °F 63.7 °F 100% 30.12 in 3.0 mi NE 4.6 mph - 0.01 in Rain Light Rain
4:35 PM 64.4 °F 64.2 °F 99% 30.11 in 4.0 mi Calm Calm - 0.01 in   Light Drizzle
4:55 PM 64.4 °F 64.2 °F 99% 30.11 in 5.0 mi Calm Calm - 0.01 in   Overcast
5:15 PM 64.2 °F 63.5 °F 98% 30.11 in 7.0 mi Calm Calm - N/A   Overcast
5:35 PM 64.4 °F 63.7 °F 98% 30.11 in 5.0 mi Calm Calm - N/A   Overcast
5:55 PM 64.4 °F 63.7 °F 98% 30.11 in 5.0 mi ENE 3.5 mph - N/A   Overcast
6:15 PM 64.4 °F 63.7 °F 98% 30.11 in 5.0 mi Calm Calm - N/A   Overcast
6:35 PM 64.6 °F 63.9 °F 98% 30.10 in 4.0 mi Calm Calm - N/A   Overcast
6:55 PM 64.8 °F 64.4 °F 99% 30.10 in 5.0 mi Calm Calm - N/A   Overcast
7:15 PM 64.9 °F 64.4 °F 98% 30.10 in 5.0 mi Calm Calm - N/A   Overcast
7:35 PM 65.3 °F 64.6 °F 98% 30.11 in 4.0 mi Calm Calm - N/A   Overcast
7:55 PM 65.3 °F 64.8 °F 98% 30.11 in 3.0 mi Calm Calm - N/A   Overcast
8:15 PM 64.9 °F 64.8 °F 99% 30.12 in 2.5 mi Calm Calm - N/A   Overcast
8:35 PM 65.3 °F 65.1 °F 99% 30.12 in 2.0 mi Calm Calm - N/A Rain Rain
8:55 PM 65.3 °F 65.3 °F 100% 30.13 in 1.8 mi Calm Calm - 0.01 in Rain Light Rain
9:15 PM 64.9 °F 64.9 °F 100% 30.13 in 1.8 mi Calm Calm - N/A   Drizzle
9:35 PM 64.9 °F 64.9 °F 100% 30.14 in 1.8 mi Calm Calm - 0.01 in   Drizzle
9:55 PM 65.1 °F 65.1 °F 100% 30.14 in 2.0 mi Calm Calm - 0.01 in Rain Light Rain
10:15 PM 65.3 °F 65.3 °F 100% 30.14 in 3.0 mi Calm Calm - 0.01 in   Overcast
10:35 PM 65.3 °F 65.3 °F 100% 30.14 in 2.5 mi Calm Calm - 0.01 in   Overcast
10:55 PM 65.3 °F 65.3 °F 100% 30.14 in 2.0 mi Calm Calm - 0.01 in Rain Light Rain
11:15 PM 65.3 °F 65.3 °F 100% 30.13 in 2.0 mi Calm Calm - N/A   Drizzle